Gao Fen 5-01A

operational
NORAD ID: 54640 Int'l Des: 2022-165 Owner: GWHYZ Country: CN
LEOCIRCULARRETROGRADESSO

About Gao Fen 5-01A

Description loading...

Live Position

Loading 3D Globe...

Upcoming Passes

Altitude History

Altitude vs Time

uPlot chart will show altitude changes over time

Two-Line Element Set

1 54640U 22165A 26048.60641220 .00000579 00000-0 13658-3 0 9993
2 54640 98.2262 347.2289 0001665 46.6166 313.5171 14.57780696169990
Epoch: Feb 17, 2026 • Age: 10 hours

Current Status

Altitude 722.4 km
Velocity 7.49 km/s
Sub-Earth Point -56.13°S, 150.65°W
Launch Date Dec 8, 2022
Age 3.1 years
Type other

Technical Details

Classification Payload
Mass 2000.00 kg
Dry Mass 2000.00 kg
Total Mass 2000.00 kg
Length 2.00 m
Diameter 2.00 m
Span 8.00 m
Shape Box + 1 Pan
Manufacturer SAST
Bus Type SAST-1000
Phase Status In Orbit
Owner/State GWHYZ/CN

Large Constellations

Loading constellations...